Delta Virtual Airport Information Service

New York John F. Kennedy International Airport

ICAO: KJFK Country: United States
Latitude: 40.6398 Longitude: -73.7789
Latest Arrival : DAC1258 (KORD-KJFK) Latest Departure : DAC2768 (KJFK-KBOS)


WX CaptureLIVE
Data provided by noaa.gov | Fetched at 13:15:39

METAR : KJFK 281751Z 00000KT 10SM BKN024 13/07 A2995 RMK AO2 SLP141 BKN V SCT T01330072 10144 20106 58008

TAF : KJFK 281729Z 2818/2924 07005KT P6SM BKN025 TEMPO 2819/2822 SCT035 FM282200 07005KT P6SM BKN035 FM290100 08006KT P6SM SCT025 BKN035 FM291400 08012G18KT P6SM BKN020 FM292000 09015G24KT P6SM BKN020


Runway Data for KJFK
Data provided by openaviationdata.com

Runway ID Mag Var Hdg Length Elevation Surface ILS Freq ILS Id ILS Slope
04L -14 44° 11353 ft 13 ft Asphalt 110.9 IHIQ 3
04R -14 44° 8401 ft 13 ft Asphalt 109.5 IJFK 3
13L -14 134° 9992 ft 13 ft Asphalt 111.5 ITLK 3
13R -14 134° 14564 ft 13 ft Asphalt -- -- --
22L -14 224° 8401 ft 13 ft Asphalt 110.9 IIWY 3
22R -14 224° 11353 ft 13 ft Asphalt 109.5 IJOC 3
31L -14 314° 14564 ft 13 ft Asphalt 111.35 IMOH 3
31R -14 314° 9992 ft 13 ft Asphalt 111.5 IRTH 3

New York John F. Kennedy International Airport, United States
Use only for reference purposes



Not for navigational purposes.